CW0315 Weather Reports


time (UTC)temp
C
wind
direction
speed
KPH
gust
KPH
rain 1hr
cm
rain 24hr
cm
rain mn
cm
humidity
%
barometer
mb
20260505124314 21 180 4.8 14.5 0.00 0.00 0.00 37 1004.6
20260505123313 22 292 3.2 14.5 0.00 0.00 0.00 41 1005.0
20260505122313 21 180 3.2 12.9 0.00 0.00 0.00 39 1005.0
20260505121313 21 202 1.6 11.3 0.00 0.00 0.00 39 1005.1
20260505115312 21 202 8.0 16.1 0.00 0.00 0.00 42 1004.9
20260505114312 21 180 4.8 9.7 0.00 0.00 0.00 43 1005.0
20260505113312 21 202 0.0 8.0 0.00 0.00 0.00 38 1005.2
20260505112312 21 180 1.6 11.3 0.00 0.00 0.00 40 1005.1
20260505110312 21 270 3.2 9.7 0.00 0.00 0.00 47 1005.7
20260505094311 21 180 4.8 12.9 0.00 0.00 0.00 46 1006.3
20260505093311 20 202 9.7 17.7 0.00 0.00 0.00 46 1006.1
20260505092310 19 202 4.8 11.3 0.00 0.00 0.00 50 1006.1
20260505091311 20 202 6.4 12.9 0.00 0.00 0.00 48 1006.7
20260505090310 19 180 4.8 9.7 0.00 0.00 0.00 48 1006.6
20260505085310 20 292 3.2 9.7 0.00 0.00 0.00 49 1006.6
20260505084310 20 292 4.8 12.9 0.00 0.00 0.00 50 1006.6
20260505083310 18 202 8.0 11.3 0.00 0.00 0.00 51 1006.4
20260505082310 19 157 1.6 9.7 0.00 0.00 0.00 49 1006.7
20260505081310 18 180 4.8 9.7 0.00 0.00 0.00 52 1006.5
20260505080310 18 180 0.0 11.3 0.00 0.00 0.00 55 1006.6
20260505075309 18 67 0.0 11.3 0.00 0.00 0.00 56 1006.6
20260505073311 17 180 4.8 8.0 0.00 0.00 0.00 55 1006.4
20260505072311 17 202 1.6 4.8 0.00 0.00 0.00 53 1006.4
20260505071311 17 0 0.0 0.0 0.00 0.00 0.00 58 1006.6
20260505070311 16 0 0.0 6.4 0.00 0.00 0.00 58 1006.4
20260505064311 16 0 0.0 4.8 0.00 0.00 0.00 62 1006.8
20260505062310 16 0 0.0 0.0 0.00 0.00 0.00 58 1007.1
20260505061310 15 0 0.0 0.0 0.00 0.00 0.00 64 1006.9
20260505055310 13 0 0.0 8.0 0.00 0.00 0.00 72 1006.7
20260505053310 12 45 8.0 9.7 0.00 0.00 0.00 72 1006.5
20260505052310 11 45 6.4 9.7 0.00 0.00 0.00 74 1006.5
20260505051310 11 45 6.4 9.7 0.00 0.00 0.00 75 1006.5
20260505041314 11 45 6.4 9.7 0.00 0.00 0.00 72 1007.0
20260505040314 12 45 6.4 9.7 0.00 0.00 0.00 70 1007.2
20260505035313 12 45 6.4 8.0 0.00 0.00 0.00 69 1007.2
20260505033314 11 45 6.4 9.7 0.00 0.00 0.00 70 1007.1
20260505032313 11 45 6.4 9.7 0.00 0.00 0.00 71 1007.3
20260505031313 11 45 4.8 6.4 0.00 0.00 0.00 71 1007.4
20260505030313 11 45 6.4 8.0 0.00 0.00 0.00 70 1007.4
20260505025313 11 45 6.4 8.0 0.00 0.00 0.00 70 1007.4
20260505024313 11 45 6.4 8.0 0.00 0.00 0.00 69 1007.5
20260505023312 11 22 4.8 6.4 0.00 0.00 0.00 69 1007.5
20260505022312 11 45 6.4 8.0 0.00 0.00 0.00 68 1007.6
20260505021313 11 45 6.4 8.0 0.00 0.00 0.00 67 1007.8
20260505020312 11 45 6.4 8.0 0.00 0.00 0.00 66 1008.1
20260505013312 12 45 3.2 8.0 0.00 0.00 0.00 65 1008.2
20260505012312 12 45 4.8 6.4 0.00 0.00 0.00 64 1008.2
20260505010311 12 45 4.8 4.8 0.00 0.00 0.00 64 1008.5
20260505004311 13 22 3.2 6.4 0.00 0.00 0.00 58 1008.7
20260505003313 13 22 4.8 8.0 0.00 0.00 0.00 58 1008.6
20260505002311 13 45 6.4 8.0 0.00 0.00 0.00 59 1008.6
20260505001310 13 22 8.0 9.7 0.00 0.00 0.00 57 1008.7
20260505000311 13 45 6.4 8.0 0.00 0.00 0.00 60 1008.6
20260504234310 13 22 3.2 6.4 0.00 0.00 0.00 60 1008.9
20260504233310 13 0 0.0 6.4 0.00 0.00 0.00 61 1008.8
20260504232310 13 0 0.0 6.4 0.00 0.00 0.00 60 1008.8
20260504225309 15 0 0.0 0.0 0.00 0.00 0.00 55 1008.9
20260504223311 16 22 4.8 8.0 0.00 0.00 0.00 52 1009.1
20260504222309 16 22 3.2 4.8 0.00 0.00 0.00 55 1008.9
20260504221309 16 360 1.6 4.8 0.00 0.00 0.00 48 1009.5
20260504220314 16 45 9.7 16.1 0.00 0.00 0.00 51 1010.2
20260504215314 16 67 6.4 16.1 0.00 0.00 0.00 54 1010.1
20260504211314 17 202 0.0 4.8 0.00 0.00 0.00 48 1010.3
20260504210313 17 360 4.8 12.9 0.00 0.00 0.00 49 1009.8
20260504204313 16 67 12.9 19.3 0.00 0.00 0.00 49 1010.1
20260504203314 16 90 3.2 8.0 0.00 0.00 0.00 50 1010.3
20260504202313 16 45 8.0 12.9 0.00 0.00 0.00 49 1010.3
20260504201312 17 22 9.7 16.1 0.00 0.00 0.00 48 1010.5
20260504200312 17 22 6.4 14.5 0.00 0.00 0.00 46 1010.4
20260504195315 17 360 16.1 20.9 0.00 0.00 0.00 46 1010.4
20260504194312 17 360 3.2 22.5 0.00 0.00 0.00 45 1010.4
20260504193313 16 360 9.7 20.9 0.00 0.00 0.00 46 1010.3
20260504191312 16 337 0.0 4.8 0.00 0.00 0.00 50 1009.9
20260504190311 17 67 0.0 4.8 0.00 0.00 0.00 46 1009.9
20260504185311 18 360 6.4 12.9 0.00 0.00 0.00 40 1009.4
20260504184311 18 22 6.4 12.9 0.00 0.00 0.00 40 1009.1
20260504183311 18 22 6.4 11.3 0.00 0.00 0.00 42 1009.1
20260504182311 18 67 3.2 11.3 0.00 0.00 0.00 35 1009.0
20260504181311 19 0 0.0 4.8 0.00 0.00 0.00 35 1008.9
20260504180311 20 0 0.0 11.3 0.00 0.00 0.00 33 1009.1
20260504175311 20 67 3.2 16.1 0.00 0.00 0.00 33 1009.1
20260504174311 20 67 1.6 4.8 0.00 0.00 0.00 40 1008.9
20260504173310 20 67 1.6 4.8 0.00 0.00 0.00 37 1008.7
20260504172310 20 67 0.0 8.0 0.00 0.00 0.00 36 1008.7
20260504171310 20 45 4.8 6.4 0.00 0.00 0.00 36 1008.7
20260504170310 21 67 1.6 6.4 0.00 0.00 0.00 35 1008.7
20260504160309 22 0 0.0 6.4 0.00 0.00 0.00 34 1009.4
20260504141313 22 180 8.0 11.3 0.00 0.00 0.00 39 1010.2
20260504140312 22 202 0.0 12.9 0.00 0.00 0.00 38 1010.5